Weather History for Windsor Locks, CT

Change the Weather History Date:

Tuesday, May 21, 2013

  Actual Average Record
Temperature  
Mean Temperature 74 °F 61 °F  
Max Temperature 91 °F 73 °F 93 °F (1996)
Min Temperature 56 °F 49 °F 34 °F (2002)
Degree Days  
Heating Degree Days 0 5  
Month to date heating degree days 137 161  
Since 1 July heating degree days 5630 5914  
Cooling Degree Days 9 1  
Month to date cooling degree days 16 14  
Year to date cooling degree days 16 20  
Growing Degree Days 26 (Base 50)    
Moisture  
Dew Point 63 °F    
Average Humidity 72    
Maximum Humidity 100    
Minimum Humidity 44    
Precipitation  
Precipitation 1.45 in 0.15 in 2.35 in (1919)
Month to date precipitation 2.57 2.74  
Year to date precipitation 12.35 16.20  
Snow  
Snow 0.00 in 0.00 in T in (1989)
Month to date snowfall 0.0 0.0  
Since 1 July snowfall 56.9 40.5  
Snow Depth 0.00 in    
Sea Level Pressure  
Sea Level Pressure 29.88 in    
Wind  
Wind Speed 7 mph (SSW)    
Max Wind Speed 28 mph    
Max Gust Speed 68 mph    
Visibility 6 miles    
Events Fog , Rain , Thunderstorm    
T = Trace of Precipitation, MM = Missing Value Source: NWS Daily Summary

Daily Weather History Graph

Daily Weather History Graph

Search for Another Location

Airport:

Trip Planner

Search our weather history database for the weather conditions in past years. The results will help you decide how hot, cold, wet, or windy it might be!

Date:

Astronomy

May. 21, 2013 Rise Set
Actual Time 5:24 AM EDT 8:10 PM EDT
Civil Twilight 4:52 AM EDT 8:43 PM EDT
Nautical Twilight 4:11 AM EDT 9:24 PM EDT
Astronomical Twilight 3:24 AM EDT 10:11 PM EDT
Moon 4:17 PM EDT (5/21) 2:55 AM EDT (5/21)
Length of Visible Light 15h 50m
Length of Day
14h 45m
Waxing Gibbous, 84% of the Moon is Illuminated
May 21
Waxing Gibbous
May 25
Full
May 31
Last Quarter
Jun 8
New
Jun 16
First Quarter

Hourly Weather History & Observations

Time (EDT) Temp. Heat Index Dew Point Humidity Pressure Visibility Wind Dir Wind Speed Gust Speed Precip Events Conditions
12:51 AM 68.0 °F - 64.0 °F 87% 29.96 in 9.0 mi SW 3.5 mph - N/A   Mostly Cloudy
1:51 AM 66.0 °F - 64.0 °F 93% 29.95 in 6.0 mi Calm Calm - N/A   Scattered Clouds
2:51 AM 64.9 °F - 63.0 °F 93% 29.92 in 4.0 mi SSW 3.5 mph - N/A   Scattered Clouds
3:51 AM 64.0 °F - 63.0 °F 96% 29.92 in 4.0 mi Calm Calm - N/A   Partly Cloudy
4:47 AM 64.4 °F - 62.6 °F 94% 29.93 in 1.2 mi Calm Calm - N/A   Partly Cloudy
4:51 AM 61.0 °F - 60.1 °F 97% 29.93 in 1.2 mi Calm Calm - N/A   Scattered Clouds
5:06 AM 60.8 °F - 60.8 °F 100% 29.93 in 0.8 mi NNE 3.5 mph - N/A   Mist
5:10 AM 60.8 °F - 60.8 °F 100% 29.93 in 1.2 mi Calm Calm - N/A   Mostly Cloudy
5:19 AM 62.6 °F - 60.8 °F 94% 29.93 in 0.8 mi Calm Calm - N/A   Mist
5:27 AM 62.6 °F - 60.8 °F 94% 29.94 in 1.2 mi Calm Calm - N/A   Mostly Cloudy
5:41 AM 60.8 °F - 60.8 °F 100% 29.93 in 0.8 mi Calm Calm - N/A   Mostly Cloudy
5:51 AM 61.0 °F - 60.1 °F 97% 29.94 in 0.8 mi Calm Calm - N/A   Overcast
6:51 AM 64.0 °F - 63.0 °F 96% 29.93 in 0.5 mi SSE 3.5 mph - N/A Fog Fog
7:02 AM 64.4 °F - 62.6 °F 94% 29.93 in 0.2 mi SW 3.5 mph - N/A Fog Fog
7:22 AM 64.4 °F - 62.6 °F 94% 29.93 in 0.5 mi Calm Calm - N/A Fog Fog
7:51 AM 64.9 °F - 64.0 °F 97% 29.92 in 0.5 mi SW 3.5 mph - N/A   Overcast
8:00 AM 64.4 °F - 64.4 °F 100% 29.93 in 1.2 mi SSW 3.5 mph - N/A   Overcast
8:12 AM 66.2 °F - 64.4 °F 94% 29.93 in 2.5 mi SW 5.8 mph - N/A   Overcast
8:21 AM 66.2 °F - 64.4 °F 94% 29.93 in 4.0 mi WSW 4.6 mph - N/A   Mostly Cloudy
8:31 AM 69.8 °F - 64.4 °F 83% 29.94 in 5.0 mi West 4.6 mph - N/A   Haze
8:51 AM 70.0 °F - 64.9 °F 84% 29.93 in 6.0 mi SSW 4.6 mph - N/A   Haze
9:51 AM 77.0 °F - 66.0 °F 69% 29.92 in 9.0 mi SSW 6.9 mph - N/A   Scattered Clouds
10:51 AM 80.1 °F 82.1 °F 66.0 °F 62% 29.89 in 10.0 mi SSW 6.9 mph - N/A   Scattered Clouds
11:51 AM 84.9 °F 87.1 °F 66.0 °F 53% 29.87 in 10.0 mi SSW 6.9 mph - N/A   Scattered Clouds
12:51 PM 87.1 °F 89.9 °F 66.9 °F 51% 29.85 in 10.0 mi SSW 11.5 mph - N/A   Scattered Clouds
1:51 PM 88.0 °F 89.6 °F 64.9 °F 46% 29.84 in 10.0 mi SW 8.1 mph - N/A   Mostly Cloudy
2:51 PM 90.0 °F 91.7 °F 64.9 °F 43% 29.82 in 10.0 mi South 9.2 mph - N/A   Mostly Cloudy
3:51 PM 88.0 °F 91.4 °F 68.0 °F 51% 29.80 in 10.0 mi SSE 12.7 mph 17.3 mph N/A   Mostly Cloudy
4:25 PM 87.8 °F 91.4 °F 68.0 °F 52% 29.80 in 10.0 mi SSW 11.5 mph - 0.00 in Thunderstorm Thunderstorm
4:51 PM 82.9 °F 86.5 °F 69.1 °F 63% 29.80 in 8.0 mi SSW 11.5 mph - 0.01 in Rain , Thunderstorm Thunderstorms and Rain
5:00 PM 78.8 °F - 69.8 °F 74% 29.84 in 0.5 mi West 27.6 mph 38.0 mph 0.12 in Rain , Thunderstorm Heavy Thunderstorms and Rain
5:10 PM 73.4 °F - 59.0 °F 61% 29.85 in 1.0 mi WNW 12.7 mph 48.3 mph 0.78 in Rain , Thunderstorm Heavy Thunderstorms and Rain
5:24 PM 71.6 °F - 60.8 °F 69% 29.83 in 1.0 mi North 27.6 mph 67.9 mph 1.16 in Rain , Thunderstorm Heavy Thunderstorms and Rain
5:30 PM 69.8 °F - 60.8 °F 73% 29.81 in 2.0 mi East 12.7 mph 67.9 mph 1.38 in Rain , Thunderstorm Heavy Thunderstorms and Rain
5:37 PM 71.6 °F - 60.8 °F 69% 29.77 in 3.0 mi SSW 12.7 mph 17.3 mph 1.40 in Rain , Thunderstorm Light Thunderstorms and Rain
5:51 PM 70.0 °F - 63.0 °F 78% 29.77 in 8.0 mi South 8.1 mph 18.4 mph 1.43 in Rain , Thunderstorm Light Thunderstorms and Rain
6:06 PM 71.6 °F - 62.6 °F 73% 29.77 in 9.0 mi SSE 11.5 mph - 0.00 in   Overcast
6:24 PM 71.6 °F - 60.8 °F 69% 29.78 in 9.0 mi South 10.4 mph - 0.00 in Thunderstorm Thunderstorm
6:51 PM 72.0 °F - 61.0 °F 68% 29.80 in 10.0 mi SSE 6.9 mph - 0.00 in Thunderstorm Thunderstorm
7:51 PM 69.1 °F - 64.9 °F 87% 29.85 in 9.0 mi ESE 12.7 mph - 0.01 in Rain , Thunderstorm Light Thunderstorms and Rain
8:25 PM 69.8 °F - 66.2 °F 88% 29.88 in 8.0 mi NNW 12.7 mph - N/A Rain Light Rain
8:44 PM 69.8 °F - 66.2 °F 88% 29.86 in 10.0 mi ENE 5.8 mph - 0.00 in   Overcast
8:51 PM 69.1 °F - 66.0 °F 90% 29.87 in 10.0 mi NE 4.6 mph - 0.00 in   Overcast
9:30 PM 66.2 °F - 64.4 °F 94% 29.88 in 9.0 mi ENE 9.2 mph - N/A   Overcast
9:51 PM 64.0 °F - 62.1 °F 93% 29.88 in 8.0 mi NE 10.4 mph - N/A   Overcast
10:12 PM 62.6 °F - 60.8 °F 94% 29.88 in 8.0 mi NE 9.2 mph - N/A   Overcast
10:51 PM 62.1 °F - 60.1 °F 93% 29.89 in 8.0 mi NE 8.1 mph - N/A   Overcast
11:51 PM 59.0 °F - 55.9 °F 90% 29.97 in 10.0 mi North 18.4 mph 21.9 mph N/A   Overcast